Location: Pryor
(45.4297°N, 108.5332°W)
Time: 21:26:15
(UTC+00:00)

Envisat - Visible Passes

Search period start: 19 January 2022 00:00
Search period end: 29 January 2022 00:00
Orbit: 764 x 766 km, 98.2° (Epoch: 19 January)

Date Brightness Start Highest point End Pass type
(mag) Time Alt. Az. Time Alt. Az. Time Alt. Az.
19 Jan 3.3 12:02:15 10° NNE 12:07:20 66° ESE 12:12:22 10° S visible
19 Jan 4.3 13:42:24 10° NNW 13:45:49 19° WNW 13:49:15 10° WSW visible
20 Jan 4.7 11:25:47 10° NNE 11:30:17 31° E 11:34:45 10° SSE visible
20 Jan 3.5 13:04:42 10° N 13:09:20 36° WNW 13:13:54 10° SW visible
21 Jan 5.7 10:50:14 10° NE 10:53:02 15° E 10:55:49 10° ESE visible
21 Jan 2.8 12:27:31 10° N 12:32:37 74° WNW 12:37:40 10° SSW visible
21 Jan 4.7 14:09:06 10° NW 14:10:44 11° NW 14:12:23 10° WNW visible
22 Jan 3.7 11:50:44 10° NNE 11:55:42 52° E 12:00:39 10° S visible
22 Jan 4.1 13:30:29 10° NNW 13:34:22 23° WNW 13:38:15 10° WSW visible
23 Jan 6.1 00:49:47 10° WSW 00:51:59 13° W 00:54:10 10° WNW visible
23 Jan 5.0 11:14:27 10° NE 11:18:36 25° E 11:22:44 10° SSE visible
23 Jan 3.2 12:52:58 10° N 12:57:48 44° WNW 13:02:36 10° SW visible
24 Jan 6.0 10:39:42 10° ENE 10:41:17 11° E 10:42:53 10° ESE visible
24 Jan 2.9 12:15:55 10° NNE 12:21:02 88° ESE 12:26:07 10° SSW visible
24 Jan 4.6 13:56:42 10° NNW 13:59:19 14° WNW 14:01:56 10° W visible
25 Jan 4.1 11:39:15 10° NNE 11:44:04 41° E 11:48:51 10° SSE visible
25 Jan 3.8 13:18:38 10° N 13:22:53 27° WNW 13:27:08 10° WSW visible
26 Jan 5.9 00:37:07 10° SW 00:40:14 16° W 00:43:22 10° NW visible
26 Jan 5.3 11:03:13 10° NE 11:06:54 20° E 11:10:34 10° SE visible
26 Jan 3.0 12:41:17 10° N 12:46:16 55° WNW 12:51:12 10° SSW visible
27 Jan 3.2 12:04:20 10° NNE 12:09:26 71° ESE 12:14:29 10° S visible
27 Jan 4.4 13:44:36 10° NNW 13:47:53 17° WNW 13:51:09 10° W visible
28 Jan 4.5 11:27:48 10° NNE 11:32:24 33° E 11:36:57 10° SSE visible
28 Jan 3.6 13:06:50 10° N 13:11:23 34° WNW 13:15:54 10° SW visible
